Location: Jackson Park
(37.2862°N, 79.9123°W)
Time: 01:45:56
(UTC+00:00)

Tiros 1 despin weight - Pass Details

Date: 11 May 2026
Orbit: 554 x 591 km, 48.2° (Epoch: 6 June)

Event Time Altitude Azimuth Distance (km) Brightness Sun altitude
Rises 10:16:27 0° 200° (SSW) 2,745 ? -0.5°
Reaches altitude 10° 10:19:06 10° 184° (S) 1,846 ? 0.0°
Maximum altitude 10:22:20 22° 134° (SE) 1,261 ? 0.6°
Drops below altitude 10° 10:25:33 10° 84° (E) 1,839 ? 1.2°
Sets 10:28:10 0° 68° (ENE) 2,733 ? 1.7°
